FENGYUN 1C DEB, 36238

Orbit data source: Space-Track

FENGYUN 1C DEB, 36238 is space debris in SSO originally from a launch on Mon, 10 May 1999 UTC launched from the Taiyaun Space Center, China (TSC). Fengyun 1C debris stems from the Chinese weather satellite Fengyun-1C, which was intentionally destroyed by a Chinese anti-satellite missile in 2007. This event dramatically increased the amount of space debris, with thousands of trackable fragments posing hazards to satellites and human spaceflight. The Fengyun 1C debris cloud has become a focal point in discussions about space sustainability and the need for international regulations to prevent the creation of new debris.

Loading next visibility...
Identifier
36238, 1999-025DVP
Orbit
SSO
Country
Flag of CNCN / PRC
Related business
Manufacturer
Unknown
Mission
Spacecraft
Bus & Motor
Unknown
Mass
Unknown
Launch date (UTC)
1999-05-10 (27 years ago)
Launch vehicle
Unknown
Launch site
Taiyaun Space Center, China (TSC)
Object type
Payload
Rocket body
Debris
Shape & HBR
Unknown shape, 0.1 m
Radar Cross Section
Small (<0.1 m²)

Expand to show TLE details & history
Last TLE update: 2 days ago

TLE from 2 days ago
0 FENGYUN 1C DEB
1 36238U 99025DVP 26206.18926522  .00000083  00000-0  68029-4 0  9998
2 36238  98.6735 176.2173 0021306   4.8623 355.2753 14.12452659901867
Epoch: 2026-07-25T04:32Z
TLE epoch observation values (Epoch: 2026-07-25T04:32:32.515Z)
Latitude
0.00005°
Longitude
165.17669°
Altitude
838.543 km
Speed
7.441 km/s
True Right ascension
11h 44m 52s
True Declination
0° 00' 00"
Sunlit
Object was in daylight at epoch
Visualization orbit readout
Latitude
Unknown
Longitude
Unknown
Altitude
Unknown
Speed
Unknown
Apparent Right ascension
Unknown
Apparent Declination
Unknown
Sunlit
N/A
Visualization observer readout
Local Sidereal Time
02:23:45
Azimuth
Unknown
Elevation
Unknown
Doppler factor
Unknown
Orbital elements
Apogee altitude
863.554 km
Perigee altitude
832.761 km
Semi-major axis
7,226.295 km
Eccentricity
0.00213
Inclination
98.6735°
RAAN
176.2173°
Arg. of periapsis
4.8623°
True anomaly
355.25514°
Mean anomaly
355.2753°
Eccentric anomaly
355.26522°
Mean motion
3.53321 °/min
Orbital period
101.89 mins
BSTAR
0.000068029
Loading maneuver chart data...
Computing Atmospheric mass density...

Documentation

Showing up to 5 results
|